TimeMDT,TemperatureF,Dew PointF,Humidity,Sea Level PressureIn,VisibilityMPH,Wind Direction,Wind SpeedMPH,Gust SpeedMPH,PrecipitationIn,Events,Conditions,WindDirDegrees,DateUTC
12:53 AM,62.1,50.0,65,30.08,10.0,South,13.8,21.9,N/A,,Clear,170,2013-07-16 06:53:00
1:53 AM,61.0,50.0,67,30.06,10.0,South,10.4,20.7,N/A,,Clear,180,2013-07-16 07:53:00
2:53 AM,59.0,48.9,69,30.07,10.0,South,9.2,-,N/A,,Clear,190,2013-07-16 08:53:00
3:53 AM,57.0,48.9,74,30.06,10.0,SSW,8.1,-,N/A,,Clear,200,2013-07-16 09:53:00
4:53 AM,57.9,48.9,72,30.05,10.0,SSW,8.1,-,N/A,,Clear,200,2013-07-16 10:53:00
5:53 AM,53.1,48.9,86,30.07,10.0,SE,5.8,-,N/A,,Clear,130,2013-07-16 11:53:00
6:53 AM,57.0,50.0,77,30.09,10.0,SSE,10.4,-,N/A,,Clear,150,2013-07-16 12:53:00
7:53 AM,62.1,52.0,70,30.10,10.0,South,11.5,21.9,N/A,,Clear,170,2013-07-16 13:53:00
8:53 AM,66.9,53.1,61,30.11,10.0,South,19.6,24.2,N/A,,Clear,170,2013-07-16 14:53:00
9:53 AM,70.0,55.0,59,30.11,10.0,South,21.9,27.6,N/A,,Clear,170,2013-07-16 15:53:00
10:53 AM,73.9,53.1,48,30.11,10.0,South,21.9,28.8,N/A,,Partly Cloudy,170,2013-07-16 16:53:00
11:53 AM,75.9,52.0,43,30.10,10.0,SSE,21.9,26.5,N/A,,Partly Cloudy,160,2013-07-16 17:53:00
12:53 PM,75.9,50.0,40,30.10,10.0,South,23.0,-,N/A,,Mostly Cloudy,170,2013-07-16 18:53:00
1:53 PM,78.1,50.0,37,30.09,10.0,South,19.6,26.5,N/A,,Scattered Clouds,180,2013-07-16 19:53:00
2:53 PM,78.1,51.1,39,30.09,10.0,SSE,19.6,27.6,N/A,,Scattered Clouds,150,2013-07-16 20:53:00
3:53 PM,80.1,51.1,36,30.09,10.0,South,21.9,26.5,N/A,,Scattered Clouds,180,2013-07-16 21:53:00
4:53 PM,79.0,50.0,36,30.09,10.0,SSE,19.6,28.8,N/A,,Partly Cloudy,150,2013-07-16 22:53:00
5:53 PM,79.0,51.1,38,30.10,10.0,South,23.0,34.5,N/A,,Partly Cloudy,170,2013-07-16 23:53:00
6:53 PM,75.0,53.1,46,30.10,10.0,SSE,20.7,28.8,N/A,,Partly Cloudy,160,2013-07-17 00:53:00
7:53 PM,73.0,55.9,55,30.11,10.0,SSE,21.9,31.1,N/A,,Clear,160,2013-07-17 01:53:00
8:53 PM,69.1,55.9,63,30.13,10.0,SSE,21.9,26.5,N/A,,Clear,160,2013-07-17 02:53:00
9:53 PM,66.9,57.0,70,30.16,10.0,SSE,15.0,25.3,N/A,,Clear,160,2013-07-17 03:53:00
10:53 PM,64.9,57.9,78,30.18,10.0,SSE,12.7,23.0,N/A,,Clear,150,2013-07-17 04:53:00
11:53 PM,63.0,57.9,84,30.18,10.0,SSE,11.5,-,N/A,,Clear,150,2013-07-17 05:53:00